NOAA 16 DEB, 42385

Orbit data source: Space-Track

NOAA 16 DEB, 42385 is space debris in SSO originally from a launch on Thu, 21 Sep 2000 UTC launched from the Air Force Western Test Range (AFWTR). Debris objects in space refer to the collection of defunct objects orbiting the Earth. Examples of debris include non-operational satellites, rocket bodies, and fragments generated from explosions, collisions, or faulty payload assembly.

Loading next visibility...
Identifier
42385, 2000-055SD
Orbit
SSO
Country
Flag of USUS
Related business
Manufacturer
Unknown
Mission
Spacecraft
Bus & Motor
Unknown
Mass
Unknown
Launch date (UTC)
2000-09-21 (26 years ago)
Launch vehicle
Unknown
Launch site
Air Force Western Test Range (AFWTR)
Object type
Payload
Rocket body
Debris
Shape & HBR
Unknown shape, 0.1 m
Radar Cross Section
Small (<0.1 m²)

Expand to show TLE details & history
Last TLE update: 1 day ago

TLE from 1 day ago
0 NOAA 16 DEB
1 42385U 00055SD  26235.07510154  .00003114  00000-0  10862-2 0  9991
2 42385  98.6475 314.9388 0005750  27.1205 333.0279 14.36019587537234
Epoch: 2026-08-23T01:48Z
TLE epoch observation values (Epoch: 2026-08-23T01:48:08.773Z)
Latitude
-0.00009°
Longitude
-43.47411°
Altitude
770.954 km
Speed
7.471 km/s
True Right ascension
20h 59m 45s
True Declination
0° 00' 00"
Sunlit
Object was in full shadow at epoch
Visualization orbit readout
Latitude
Unknown
Longitude
Unknown
Altitude
Unknown
Speed
Unknown
Apparent Right ascension
Unknown
Apparent Declination
Unknown
Sunlit
N/A
Visualization observer readout
Local Sidereal Time
02:09:42
Azimuth
Unknown
Elevation
Unknown
Doppler factor
Unknown
Orbital elements
Apogee altitude
772.924 km
Perigee altitude
764.705 km
Semi-major axis
7,146.951 km
Eccentricity
0.00058
Inclination
98.6475°
RAAN
314.9388°
Arg. of periapsis
27.1205°
True anomaly
332.998°
Mean anomaly
333.0279°
Eccentric anomaly
333.01295°
Mean motion
3.59221 °/min
Orbital period
100.22 mins
BSTAR
0.0010862
Loading maneuver chart data...
Computing Atmospheric mass density...
Loading historical data...
Loading historical data...
Loading historical data...
Loading historical data...
Loading historical data...
Loading historical data...
Loading historical data...

Documentation

Showing up to 5 results
|